Regional Weather Roundup
Issued by NWS Wakefield, VA

Home | Current Version | Previous Version | Text Only | Print | Product List | Glossary On
Versions: 1 2 3 4 5 6 7 8 9 10 11 12 13 14 15 16 17 18 19 20 21 22 23 24 25 26 27
000
ASUS41 KAKQ 230915
RWRAKQ

REGIONAL WEATHER ROUNDUP
NATIONAL WEATHER SERVICE WAKEFIELD VA
400 AM EST MON JAN 23 2017

Note: "fair" indicates few or no clouds below 12,000 feet with no
significant weather and/or obstructions to visibility. * = Denotes
station may not report precipitation (e.g., rain,snow,etc.),
thunder or fog.

VAZ042-051-052>054-056-231000-
NORTHERN VIRGINIA

CITY           SKY/WX    TMP DP  RH WIND       PRES   REMARKS
WASH NATIONAL  LGT RAIN  48  47  96 NE24G33   29.54F FOG
DULLES         DRIZZLE   47  44  90 E17G30    29.54F
FORT BELVOIR   CLOUDY    48  46  93 NE8       29.52F
QUANTICO       CLOUDY    49  48  97 NE16G30   29.52F VSB 1
FREDERICKSBRG* DRIZZLE   49  49 100 NE16G25   29.49F
STAFFORD*      LGT RAIN  48  48 100 E14G29    29.54F
WARRENTON      LGT RAIN  50  46  87 NE17G28   29.50F
CULPEPER*      DRIZZLE   50  49  98 NE8G16    29.51F
MANASSAS*      NOT AVBL
LEESBURG*      CLOUDY    48  48 100 NE13      29.57F
WINCHESTER     DRIZZLE   45  43  93 NE7       29.54F
FRONT ROYAL*   CLOUDY    46  46 100 NE10      29.52F
LURAY*         HVY RAIN  46  46 100 N8        29.49F
$$

VAZ048-049-060>072-079>083-231000-
CENTRAL AND SOUTH CENTRAL VIRGINIA

CITY           SKY/WX    TMP DP  RH WIND       PRES   REMARKS
RICHMOND       LGT RAIN  50  50 100 NE16G25   29.40F FOG
CHESTERFIELD*  CLOUDY    52  36  54 NE12G17   29.41F
PETERSBURG*    CLOUDY    52  50  93 NE18G24   29.39S FOG
HANOVER        CLOUDY    50  48  93 NE10G16   29.45F FOG
TAPPAHANNOCK*  RAIN      50  50 100 NE10G21   29.47F
QUINTON*       CLOUDY    51  51 100 NE12G21   29.41F FOG
CHARLOTTSVILLE LGT RAIN  51  49  92 NE14G24   29.45F FOG
GORDONSVILLE*  CLOUDY    49  49  99 NE10G23   29.45F FOG
ORANGE*        RAIN      50  50 100 N13G21    29.49F
LOUISA*        LGT RAIN  52  52 100 NE14G23   29.44F
BUMPASS*       CLOUDY    49  49 100 NE7       29.45F
FARMVILLE*     LGT RAIN  51  51 100 NE15      29.37F
CREWE*         CLOUDY    50  50 100 NE6G18    29.35F
FORT PICKETT*  CLOUDY   N/A N/A N/A NE13G20   29.36F
CHASE CITY*    CLOUDY    49  48  95 E8G17     29.33F
CLARKSVILLE*   CLOUDY    50  50 100 NE12      29.31F
SOUTH HILL*    CLOUDY    49  49 100 NE7       29.41S
LAWRENCEVILLE* CLOUDY    50  49  97 NE7       29.36S
EMPORIA*       LGT RAIN  50  50 100 N6        29.37F
$$

VAZ088>098-231000-
SOUTHEAST VIRGINIA

CITY           SKY/WX    TMP DP  RH WIND       PRES   REMARKS
NORFOLK        FOG       48  47  96 NE12      29.37F VSB 3/4
VIRGINIA BEACH DRZL/FOG  50  49  96 E5        29.41S VSB 1/2
NORFOLK NAVAL  LGT RAIN  48  48 100 NE12      29.40F VSB 1/8
WEST POINT*    CLOUDY    51  51  99 NE21G29   29.40F
SALUDA*        CLOUDY    49  49 100 NE15G26   29.44F
NEWPORT NEWS   LGT RAIN  51  51 100 NE12      29.43R VSB 3/4
LANGLEY AFB    LGT RAIN  48  48 100 NE10      29.41R VSB 3/4
FORT EUSTIS    LGT RAIN  52  51  95 E13       29.38F FOG
WILLIAMSBURG*  CLOUDY    52  52 100 E13G20    29.40F
HR EXEC AP*    CLOUDY    52  48  87 E9        29.36F VSB 3/4
FRANKLIN*      LGT RAIN  50  50  98 NE14      29.37F
US460-WAKEFLD  LGT RAIN  51  51 100 E8        29.38F FOG
$$

VAZ020-022-025-037-045-231000-
WEST CENTRAL AND SOUTHWEST VIRGINIA

CITY           SKY/WX    TMP DP  RH WIND       PRES   REMARKS
STAUNTON*      DRIZZLE   47  46  97 NE14      29.46F
WAYNESBORO*    CLOUDY    47  46  96 NE13G20   29.42F
HOT SPRINGS VA RAIN      37  37 100 E21G33    29.33F VSB 1/2
LYNCHBURG      LGT RAIN  48  47  96 NE22G36   29.34F FOG
DANVILLE       LGT RAIN  49  49 100 E15G29    29.27F
SOUTH BOSTON*  CLOUDY    50  49  95 NE8G21    29.31F
MARTINSVILLE   CLOUDY    48  46  92 E13G20    29.30F
ROANOKE        LGT RAIN  50  48  93 NE12      29.33F
BLACKSBURG     RAIN      47  46  95 NE10G21   29.30F
DUBLIN*        RAIN      48  48 100 NE14      29.28F
MARION*        RAIN      47  46  96 NE3       29.25F
HILLSVILLE*    RAIN      45  45 100 NE15G24   29.21F
RICHLANDS*     RAIN      48  46  94 NE8       29.24F
WISE*          LGT RAIN  48  48 100 NE7       29.25F VSB 1/2
ABINGDON*      RAIN      51  49  92 E14       29.21F
$$

MDZ021>025-VAZ099-100-231000-
SOUTHERN MARYLAND AND THE DELMARVA PENINSULA

CITY           SKY/WX    TMP DP  RH WIND       PRES   REMARKS
PATUXENT RIVER CLOUDY    49  48  97 E16G25    29.52F
BAY BRIDGE APT DRIZZLE   46  46 100 NE14      29.57F FOG
LEONARDTOWN    CLOUDY    48  46  93 E8G23     29.53F
DOVER          CLOUDY    46  46 100 NE9G18    29.61F
GEORGETOWN     LGT RAIN  48 N/A N/A NE22G38   29.58F
EASTON         LGT RAIN  49  47  90 E21G31    29.60F
CAMBRIDGE      CLOUDY    46  46 100 E16G28    29.52F
SALISBURY      LGT RAIN  50  49  96 NE18G32   29.52F FOG
OCEAN CITY     CLOUDY    49  49 100 NE16G22   29.53F FOG
WALLOPS ISLAND LGT RAIN  49  49 100 NE22      29.48F FOG
ACCOMACK*      LGT RAIN  53  52  97 E20G31    29.45F
$$

NCZ012>017-030>032-231000-
NORTH CENTRAL AND EASTERN NORTH CAROLINA

CITY           SKY/WX    TMP DP  RH WIND       PRES   REMARKS
ROANOKE RAPIDS DRIZZLE   50  50 100 NE12      29.31F
RALEIGH        LGT RAIN  52  51  97 NE17      29.21F
ELIZABETH CITY RAIN      50  49  96 E14       29.37F
AHOSKIE*       RAIN      49  49  98 NE5       29.36F
EDENTON*       LGT RAIN  52  50  94 E10G22    29.35F
CURRITUCK*     RAIN      49  49 100 NE8       29.38F
KILL DEVIL HLS NOT AVBL
MANTEO         LGT RAIN  50  50 100 E10       29.38F
CAPE HATTERAS  LGT RAIN  59  58  96 E9        29.35F FOG
TARBORO*       NOT AVBL
GOLDSBORO      CLOUDY    54  54 100 E15       29.21F
WASHINGTON     LGT RAIN  52  51  98 E12G20      N/A
GREENVILLE     CLOUDY    52  52 100 E14G20    29.31F
NEW BERN       CLOUDY    54  53  97 E9        29.29F
WILMINGTON     PTCLDY    62  61  96 SW16G24   29.24S
$$

VAZ048-231000-
ELSEWHERE

CITY           SKY/WX    TMP DP  RH WIND       PRES   REMARKS
HARRISBURG PA  DRIZZLE   46  43  89 E10       29.67F FOG
BALTIMORE      LGT RAIN  45  45 100 NE22G30   29.60F FOG
ANNAPOLIS      CLOUDY    47 N/A N/A NE13      29.58F FOG
ANDREWS AFB    LGT RAIN  46  46 100 NE21G29   29.52F FOG
PHILADELPHIA   CLOUDY    44  41  89 NE20G30   29.71F
HENDERSON NC   DRIZZLE   47  46  98 NE14G21   29.26F
GREENSBORO     RAIN      50  50 100 NE12      29.20F FOG
ROCKY MOUNT    CLOUDY    52  52 100 NE15G22   29.24F
$$

VAZ100-231000-
MARINE

STATION/POSITION TIME  TEMP    WIND        PRES    WAVE   SWELL
                       AIR SEA DIR/SP/G            HT/PER HT/PER
                 (UTC) (F)     (DEG/KT/KT) (MB)    (FT/S) (FT/S)
CAPE MAY NJ      0848   47 43   50/ 10/ 20 1001.8F
LEWES DE         0848   45 44   70/ 28/ 34 1001.6F
OCEAN-CITY-INLET 0842   47 43   70/ 12/ 19 1000.6F
WACHAPREAGUE VA  0848   49 49   50/ 22/ 25  997.2F
THOMAS POINT MD  0900   46 40   50/ 21/ 24   N/A
GOOSES REEF MD   0850   46      70/ 19/ 23 1000.7F
COVE POINT MD    0848   47      80/ 19/ 27  999.7F
SOLOMONS ISLAND  0842   49 42   60/ 19/ 24   N/A
BISHOPS HEAD MD  0848   49 45   60/ 19/ 22  998.7F
PINEY POINT MD   0848           80/ 17/ 22   N/A
POTOMAC MD       0850   46      60/ 17/ 19  997.8F
CAMBRIDGE MD     0848   49 42   60/ 27/ 32  998.8F
LEWISETTA VA     0848   47 44   70/ 19/ 24  997.8F
RAPPAHANNOCK LGT 0848           70/ 21/ 22  997.3F
STINGRAY PT      0850   45      60/ 16/ 17  997.1F
YORK RVR RNG VA  0848   47      80/ 14/ 15  996.2R
YORKTOWN VA      0848   49 44   80/ 11/ 12  996.6R
JAMESTOWN VA     0850   51      60/ 14/ 21   N/A
DOMINION TERM VA 0848   47      50/  7/ 12  995.9F
CHES BAY BRIDGE  0848   47 44   50/ 14/ 15  995.3F
CAPE HENRY VA    0848   49      60/ 15/ 19   N/A
WILLOUBY STN VA  0848   46      40/ 10/ 11  996.5F
S CRANEY ISL VA  0848   49      40/  8/ 15  994.6F
CAPE HENRY BUOY  0842      48                N/A     4/ 7   2/11
OFFSHORE WE BUOY 0851      48                N/A     4/ 7   2/12
64NM E OF VA BCH 0850   58 56   90/ 10/ 10  996.1F   4/13   3/13
DUCK PIER NC     0848   48 46   50/  5/  6  995.3F
44100 DUCK FRF   0805      48                N/A     4/11   2/11
44056 DUCK FRF   0830      46                N/A     3/13   2/13
OREGON INLET NC  0842   51 51   10/  6/ 10  995.1F
HATTERAS NC      0848   58 55   80/  9/ 13  992.8F
DIAMOND SHLS NC  0850   72 72  160/ 23/ 31  992.8F   6/ 8   3/ 8
CAPE LOOKOUT NC  0800   67     150/ 25/ 26  991.0F
$$




USA.gov is the U.S. government's official web portal to all federal, state and local government web resources and services.